Regional Weather Roundup
Issued by NWS

Home | Current Version | Previous Version | Graphics & Text | Print | Product List | Glossary Off
Versions: 1 2 3 4 5 6 7 8 9 10 11 12 13 14 15 16 17 18 19 20 21 22 23 24 25 26 27 28 29 30 31 32 33 34 35 36 37 38 39 40 41 42 43 44 45 46 47 48 49 50

000
ASUS43 KIND 040859
RWRIN

WEATHER ROUNDUP FOR INDIANA
NATIONAL WEATHER SERVICE INDIANAPOLIS IN
400 AM EST SUN DEC 04 2016

NOTE: "FAIR" INDICATES FEW OR NO CLOUDS BELOW 12,000 FEET WITH NO
SIGNIFICANT WEATHER AND/OR OBSTRUCTIONS TO VISIBILITY.

* - STATION DOES NOT REPORT WEATHER SUCH AS PRECIPITATION OR FOG.

+ - STATION NOT QUALITY CONTROLLED BY THE NATIONAL WEATHER SERVICE.
    USE DATA WITH CAUTION...ESPECIALLY DEWPOINT AND RELATIVE
    HUMIDITY OBSERVATIONS.

INZ001>003-010>013-019-020-041000-
NORTHWEST INDIANA

CITY           SKY/WX    TMP DP  RH WIND       PRES   REMARKS

$$

LMZ046-743>745-041000-
SOUTHERN LAKE MICHIGAN

STATION/POSITION TIME  TEMP    WIND        PRES    WAVE
                       AIR SEA DIR/SP/G            HT
                 (UTC) (F)     (DEG/KT/KT) (MB)    (FT)
BURNS HARBOR     0840   33     170/  3/  6 1024.7R
MICHIGAN CITY    0830   32     130/  6/  6   N/A

$$

INZ004-005-014>016-021>024-041000-
NORTH CENTRAL INDIANA

CITY           SKY/WX    TMP DP  RH WIND       PRES   REMARKS
GOSHEN         CLOUDY    32  26  78 CALM      30.24F
SOUTH BEND     CLOUDY    31  25  78 SE3       30.25R

$$

INZ006>009-017-018-025>027-041000-
NORTHEAST INDIANA

CITY           SKY/WX    TMP DP  RH WIND       PRES   REMARKS
ANGOLA *+      CLOUDY    30  28  93 CALM      30.24F
FORT WAYNE     CLOUDY    33  28  81 E3        30.25F
KENDALLVILLE + CLOUDY    31  28  87 CALM      30.25F

$$

INZ028-029-035-036-043>045-051>053-041000-
WEST CENTRAL INDIANA

CITY           SKY/WX    TMP DP  RH WIND       PRES   REMARKS
CRAWFORDSVL +  CLOUDY    31  29  92 E6        30.21F WCI  26
GREENCASTLE +  CLOUDY    32  32 100 E3        30.21F
LAFAYETTE      CLOUDY    32  28  85 E7        30.22F WCI  26
TERRE HAUTE    CLOUDY    34  29  82 E5        30.21F WCI  30

$$

INZ030>032-037>040-046>048-054>057-064-065-041000-
CENTRAL INDIANA

CITY           SKY/WX    TMP DP  RH WIND       PRES   REMARKS
GREENWOOD *+   CLOUDY    33  29  85 E5        30.23S WCI  29
INDIANAPOLIS   CLOUDY    34  27  75 E6        30.22F WCI  29
-EAGLE CREEK   CLOUDY    34  27  75 E5        30.21F WCI  30
KOKOMO +       MOCLDY    31  29  92 E6        30.24F WCI  25
SHELBYVILLE    MOCLDY    34  29  82 E6        30.21F WCI  29

$$

INZ033-034-041-042-049-050-058-059-041000-
EAST CENTRAL INDIANA

CITY           SKY/WX    TMP DP  RH WIND       PRES   REMARKS
MUNCIE         CLOUDY    33  30  88 CALM      30.23F

$$

INZ060-061-067>069-081>083-085>088-041000-
SOUTHWEST INDIANA

CITY           SKY/WX    TMP DP  RH WIND       PRES   REMARKS
EVANSVILLE     LGT RAIN  39  33  79 E6        30.19F
HUNTINGBURG *+ CLOUDY    39  30  70 E6        30.20F

$$

INZ062-063-066-070>080-084-089>092-041000-
SOUTH CENTRAL AND SOUTHEAST INDIANA

CITY           SKY/WX    TMP DP  RH WIND       PRES   REMARKS
BLOOMINGTON    CLOUDY    35  28  75 SE5       30.21F WCI  31
MADISON *+     CLOUDY    36  30  80 CALM      30.23F
SEYMOUR +      CLOUDY    37  32  81 CALM      30.22F

$$




USA.gov is the U.S. government's official web portal to all federal, state and local government web resources and services.